This demonstration page uses our WeatherBlox Daily Observations layout. Learn more.

Left ArrowRight Arrow

Hourly Observations for May 18, 2021

Temp ( °F °C ) Dew Point ( °F °C ) Humidity (%) Winds ( mph kmh ) Pressure ( in mb ) Visibility ( mi km ) Precip ( " mm )
12:53 am 00:53 Clear 71 21.7 53 11.7 53 53 SE 6 9 30.17 1022 10 16 0.00 0.00
1:53 am 01:53 Clear 70 21.1 54 12.2 57 57 SE 8 13 30.17 1022 10 16 0.00 0.00
2:53 am 02:53 Clear 69 20.6 54 12.2 59 59 SSE 12 19 30.16 1021 10 16 0.00 0.00
3:53 am 03:53 Clear 68 20 55 12.8 63 63 SSE 9 15 30.16 1021 10 16 0.00 0.00
4:53 am 04:53 Clear 66 18.9 56 13.3 70 70 VRB 3 6 30.18 1022 10 16 0.00 0.00
5:53 am 05:53 Clear 64 17.8 55 12.8 73 73 E 5 7 30.20 1023 10 16 0.00 0.00
6:53 am 06:53 Sunny 64 17.8 56 13.3 75 75 E 3 6 30.23 1024 10 16 0.00 0.00
7:53 am 07:53 Sunny 64 17.8 57 13.9 78 78 ESE 6 9 30.25 1024 10 16 0.00 0.00
8:53 am 08:53 Sunny 66 18.9 59 15 78 78 ESE 8 13 30.26 1025 10 16 0.00 0.00
9:53 am 09:53 Sunny 68 20 59 15 73 73 VRB 6 9 30.26 1025 10 16 0.00 0.00
10:53 am 10:53 Sunny 70 21.1 60 15.6 71 71 SE 6 9 30.27 1025 10 16 0.00 0.00
11:53 am 11:53 Mostly Sunny 73 22.8 59 15 62 62 SSE 10 17 30.26 1025 10 16 0.00 0.00
12:53 pm 12:53 Mostly Sunny 75 23.9 59 15 58 58 E 8 13 30.26 1025 10 16 0.00 0.00
1:53 pm 13:53 Partly Cloudy 76 24.4 59 15 56 56 E 9 15 30.24 1024 10 16 0.00 0.00
2:53 pm 14:53 Partly Cloudy 77 25 58 14.4 52 52 E 10 17 30.21 1023 10 16 0.00 0.00
3:53 pm 15:53 Mostly Sunny 77 25 58 14.4 52 52 SE 12 19 30.20 1023 10 16 0.00 0.00
4:53 pm 16:53 Mostly Cloudy 77 25 59 15 54 54 E 10 17 30.18 1022 10 16 0.00 0.00
5:53 pm 17:53 Mostly Cloudy 77 25 59 15 54 54 ESE 9 15 30.17 1022 10 16 0.00 0.00
6:53 pm 18:53 Cloudy with Light Rain 71 21.7 62 16.7 73 73 ESE 6 9 30.18 1022 10 16 0.01 0.25
7:53 pm 19:53 Partly Cloudy 73 22.8 62 16.7 69 69 E 6 9 30.18 1022 10 16 0.00 0.00
8:53 pm 20:53 Partly Cloudy 73 22.8 60 15.6 64 64 E 7 11 30.19 1023 10 16 0.00 0.00
9:53 pm 21:53 Cloudy 73 22.8 60 15.6 64 64 E 9 15 30.21 1023 10 16 0.00 0.00
10:53 pm 22:53 Partly Cloudy 73 22.8 59 15 62 62 E 9 15 30.23 1024 10 16 0.00 0.00
11:53 pm 23:53 Mostly Clear 72 22.2 59 15 64 64 E 7 11 30.23 1024 10 16 0.00 0.00

Powered by AerisWeather